Lapse_Rate
6.3 6.3 6.2 6.3 6.2 6.3 6.3 6.3 6.3 6.3 6.2 6.2 6.3 6.3 6.5 6.6 6.7 6.7 6.8 6.9 7.0 7.0 7.0 7.1 7.1 7.2 7.3 7.1 7.0 7.0 6.9 6.7 6.6 6.3 6.4 6.2 6.2 6.1 6.4 6.1 6.2 6.1 6.3 6.4 6.3
6.2 6.2 6.2 6.2 6.2 6.2 6.3 6.3 6.3 6.3 6.3 6.3 6.4 6.6 6.7 6.7 6.7 6.9 6.9 7.0 7.1 7.0 6.9 7.2 7.1 7.2 7.2 6.9 6.8 6.8 6.6 6.5 6.4 6.3 6.1 6.3 6.2 6.4 5.9 6.3 6.3 6.3 6.1 6.1 6.1
6.3 6.2 6.2 6.2 6.2 6.2 6.2 6.3 6.3 6.3 6.4 6.4 6.5 6.6 6.6 6.7 6.8 6.8 6.9 6.9 6.9 7.0 7.0 7.1 6.9 7.0 6.9 6.8 6.7 6.6 6.4 6.3 6.5 6.4 6.2 6.4 6.4 6.2 5.7 6.6 6.5 6.1 5.8 5.8 5.9
6.3 6.2 6.1 6.1 6.1 6.1 6.0 6.0 6.1 6.2 6.2 6.3 6.4 6.4 6.5 6.6 6.8 6.7 6.8 6.7 6.7 6.7 6.8 6.8 6.7 6.7 6.7 6.7 6.5 6.3 6.2 6.2 6.5 6.2 6.1 6.1 6.4 6.1 5.8 6.3 6.2 6.1 5.9 5.7 5.6
6.4 6.4 6.3 6.2 6.2 6.1 6.1 6.1 6.1 6.2 6.1 6.2 6.2 6.3 6.3 6.4 6.5 6.3 6.5 6.4 6.5 6.5 6.5 6.5 6.5 6.4 6.4 6.8 6.4 6.1 6.6 6.1 6.4 6.0 5.9 5.8 6.0 6.1 5.9 6.0 6.0 5.8 5.8 5.8 5.7
6.5 6.4 6.4 6.4 6.4 6.4 6.4 6.3 6.4 6.3 6.2 6.2 6.2 6.3 6.2 6.3 6.3 6.4 6.4 6.3 6.3 6.3 6.4 6.5 6.4 6.3 6.4 6.5 6.3 6.5 6.3 6.2 6.2 6.0 5.9 5.6 5.6 5.5 6.2 5.9 5.7 5.7 5.6 5.6 5.5
6.6 6.6 6.6 6.6 6.6 6.5 6.5 6.5 6.4 6.5 6.4 6.4 6.5 6.4 6.3 6.4 6.6 6.6 6.5 6.5 6.5 6.5 6.4 6.4 6.3 6.3 6.4 6.5 6.4 6.4 6.2 6.2 5.9 6.0 5.8 5.6 5.1 5.7 5.9 5.7 5.6 5.5 5.5 5.4 5.4
6.6 6.7 6.8 6.8 6.7 6.7 6.7 6.7 6.6 6.5 6.6 6.7 6.7 6.7 6.7 6.7 6.7 6.7 6.7 6.7 6.6 6.6 6.5 6.3 6.4 6.4 6.3 6.3 6.3 6.1 6.2 5.9 6.0 5.7 5.7 5.6 5.5 5.5 5.8 5.6 5.5 5.4 5.4 5.3 5.3
6.4 6.6 6.6 6.7 6.7 6.6 6.6 6.6 6.7 6.8 6.9 6.9 6.9 6.9 6.9 6.9 6.7 6.8 6.7 6.7 6.6 6.5 6.4 6.3 6.2 6.2 6.2 6.1 6.1 6.1 6.0 6.0 5.6 5.8 5.5 5.8 5.5 5.5 5.2 5.3 5.3 5.3 5.2 5.2 5.3
6.1 6.4 6.5 6.6 6.6 6.6 6.6 6.7 6.7 6.8 6.9 6.9 6.8 6.9 6.8 6.8 6.7 6.7 6.6 6.5 6.4 6.2 6.2 6.2 6.1 6.2 6.3 6.3 6.0 5.8 5.8 5.9 5.9 5.3 5.3 5.5 5.8 5.3 5.2 5.2 5.0 5.1 5.2 5.2 5.4
6.1 6.2 6.2 6.4 6.5 6.5 6.6 6.6 6.5 6.7 6.7 6.5 6.5 6.6 6.7 6.7 6.8 6.7 6.6 6.4 6.3 6.2 6.2 6.1 6.0 6.1 6.0 6.3 6.0 6.0 5.9 5.7 6.1 5.0 4.9 5.4 5.5 5.2 5.1 4.9 4.8 4.9 5.0 4.9 4.9
5.9 6.0 6.1 6.1 6.2 6.3 6.3 6.3 6.3 6.1 6.6 6.4 6.5 6.6 6.6 6.6 6.6 6.5 6.3 6.2 6.1 6.2 6.1 6.0 5.8 6.0 5.7 5.7 5.8 5.6 5.5 5.6 5.2 5.0 5.0 5.2 5.0 5.7 5.4 4.4 3.9 4.1 4.6 4.8 4.8
5.7 5.7 5.8 5.9 6.0 6.0 5.9 5.9 6.0 6.0 6.2 6.6 6.7 6.8 6.4 6.3 6.1 5.9 6.0 6.1 6.2 6.1 6.0 5.7 5.9 5.9 5.7 5.7 5.6 5.4 5.1 5.1 4.9 5.0 4.8 4.4 5.1 5.7 5.5 5.1 5.0 4.7 4.7 4.4 4.2
5.8 5.7 5.6 5.7 5.7 5.7 5.7 5.7 5.8 6.0 5.9 6.0 6.3 6.2 6.1 6.2 6.0 6.1 6.1 6.0 6.1 6.0 5.9 5.9 6.0 5.9 5.7 5.5 5.5 5.1 5.3 4.9 4.8 4.6 4.4 3.8 3.6 4.5 5.2 4.9 4.5 4.3 4.2 3.9 3.7
5.8 5.7 5.6 5.7 5.5 5.4 5.4 5.4 5.5 5.7 5.3 5.7 5.7 5.9 5.9 5.8 5.7 5.8 5.9 6.0 5.8 5.7 5.7 5.6 5.7 5.5 5.4 5.4 5.0 5.1 4.9 4.7 4.4 4.2 3.4 4.2 3.5 4.9 4.7 4.6 4.5 4.1 3.7 3.5 3.1
5.9 5.8 6.0 5.7 5.4 5.2 5.3 5.2 5.0 5.1 4.7 5.8 5.9 6.1 5.9 5.7 5.7 5.8 5.9 5.9 5.5 5.7 5.7 5.7 5.5 5.5 5.3 5.0 4.8 4.6 4.5 4.5 4.1 3.1 1.9 4.1 4.4 4.4 4.5 4.5 4.2 3.8 3.2 2.8 2.6
5.8 5.5 5.9 5.7 5.3 5.0 5.1 5.0 4.7 4.8 5.8 5.5 5.8 5.8 6.0 5.9 5.9 6.0 6.1 5.8 5.6 5.7 5.5 5.6 5.4 5.1 5.1 4.9 4.7 4.6 4.2 4.3 2.6 1.6 2.5 3.7 3.6 3.9 3.7 3.9 3.4 3.0 2.6 2.5 2.6
5.7 5.6 5.8 5.5 5.1 4.8 5.0 4.6 4.3 5.4 5.3 5.5 5.7 5.7 5.5 5.7 5.7 5.9 5.8 6.0 6.0 5.6 5.4 5.2 4.6 5.1 5.0 4.9 4.7 4.2 4.1 4.6 3.4 3.2 3.2 3.4 3.2 4.0 3.9 3.2 2.9 2.5 2.5 2.6 2.4
5.5 5.4 5.5 5.6 5.4 5.3 5.1 4.6 5.1 5.2 5.4 5.3 5.1 5.1 5.2 5.7 5.8 5.8 5.7 5.7 5.7 5.7 5.6 5.5 4.8 4.6 4.2 4.5 4.1 3.2 3.2 3.8 4.0 3.8 2.6 3.4 3.7 3.7 2.9 2.7 2.7 2.8 2.7 2.4 2.0
5.7 5.5 5.7 5.6 5.5 5.3 5.1 5.2 5.3 5.5 5.0 5.0 4.6 4.9 5.1 5.5 5.5 5.6 5.4 5.1 5.6 5.4 5.2 5.1 4.9 3.9 3.7 3.4 3.4 3.6 3.3 3.2 3.3 0.8 1.4 3.0 3.7 3.9 2.9 2.8 3.1 2.8 2.6 2.6 2.5
5.8 5.5 5.6 5.7 5.6 5.4 5.2 5.6 5.7 5.7 5.2 4.7 4.8 4.7 5.2 5.2 5.1 4.8 4.8 4.8 5.0 5.0 4.8 4.5 4.0 3.3 3.0 3.0 3.4 3.3 3.0 2.6 2.9 3.1 1.5 1.4 2.7 2.8 3.7 3.9 3.6 3.4 3.2 3.2 3.3
6.0 5.9 5.6 5.7 5.5 5.5 5.5 5.6 5.8 5.7 5.5 5.0 4.6 5.1 5.2 4.9 4.6 4.7 4.6 4.7 4.7 4.6 4.2 4.1 3.9 3.1 3.2 2.8 2.7 2.7 2.5 2.7 2.5 2.5 2.6 3.1 1.7 2.8 3.9 4.6 4.2 4.1 3.5 3.4 3.8
5.7 5.8 5.9 5.9 5.5 5.5 5.7 5.8 5.7 5.4 5.3 4.7 4.4 4.6 5.0 4.8 4.3 4.3 4.0 4.1 4.0 4.0 3.7 3.2 3.0 2.7 2.7 2.5 2.8 2.4 2.4 2.6 2.7 2.4 1.1 3.0 2.0 3.0 4.1 5.2 4.6 4.7 4.6 4.9 5.2
6.2 5.8 5.8 5.8 5.7 5.7 5.7 5.7 6.1 5.7 5.4 5.1 4.7 3.9 4.0 3.8 3.4 3.4 3.4 3.1 3.3 3.4 3.0 2.8 2.6 2.9 3.2 4.0 3.4 2.6 2.7 2.6 2.7 2.3 2.9 2.3 3.1 2.6 3.2 3.5 4.3 4.6 5.0 5.4 6.0
6.3 6.0 6.1 5.8 5.8 6.0 6.0 6.0 5.8 5.8 5.5 4.9 3.8 3.7 3.4 3.3 3.0 3.3 3.2 2.6 2.6 2.6 2.6 2.6 2.3 2.3 2.4 2.2 2.2 2.0 1.9 2.0 2.2 2.8 3.3 2.8 3.7 3.5 3.5 4.0 4.6 5.2 5.8 6.1 6.3
6.4 6.6 5.8 6.4 6.3 6.3 6.2 6.2 6.1 5.7 5.6 4.6 4.0 3.5 3.3 3.4 3.4 3.1 2.7 2.6 2.6 2.2 1.8 2.1 1.6 1.8 1.5 2.1 2.2 1.7 1.8 2.1 2.8 2.9 3.2 3.7 3.8 4.4 4.8 5.3 5.6 6.2 6.6 6.6 6.8
6.0 6.3 6.7 6.5 6.4 6.2 6.4 5.8 5.7 5.6 4.9 4.6 4.0 3.5 3.5 3.1 2.8 2.8 2.7 2.6 2.8 2.7 2.5 2.1 2.2 2.2 1.1 2.3 2.0 0.9 2.3 2.6 3.1 3.4 4.0 4.2 4.7 5.5 6.0 6.3 6.7 6.6 6.8 6.9 7.0
Wind_Speed
15 14 14 14 14 14 14 13 13 13 12 12 12 13 15 17 17 7 8 9 11 22 24 12 10 2 6 1 2 3 2 2 4 4 6 5 5 7 10 9 8 7 9 7 8
14 15 15 14 14 14 14 13 13 13 12 11 11 11 13 16 2 14 11 16 17 16 11 11 9 9 2 1 1 2 1 5 6 6 5 5 5 8 6 11 8 12 10 9 10
15 15 15 15 15 14 14 14 13 13 12 11 10 11 12 11 3 5 19 19 18 15 7 7 10 6 1 2 4 3 3 2 7 7 8 5 4 5 4 5 7 9 9 8 10
16 16 16 16 15 14 14 14 13 13 11 11 10 11 11 4 1 7 20 18 18 14 9 6 6 3 1 1 4 1 4 5 3 3 3 4 7 5 9 7 10 10 8 9 10
16 17 16 16 16 15 14 15 14 12 9 9 11 11 5 3 4 12 16 15 12 6 6 6 4 5 2 4 2 2 5 2 6 0 3 4 9 8 8 9 9 10 10 9 9
16 16 16 16 16 15 14 15 12 9 7 8 9 8 4 1 4 14 11 9 10 10 8 9 5 5 4 5 3 3 3 2 5 4 3 2 5 5 7 9 9 10 9 9 10
15 16 17 17 17 15 16 12 9 5 4 7 9 6 6 4 4 11 12 4 5 8 3 5 5 3 4 4 0 2 2 8 7 4 3 4 6 4 12 10 9 9 8 8 9
17 18 19 19 19 20 16 11 10 8 8 10 9 5 4 1 7 11 13 4 6 3 3 5 8 3 3 1 4 3 1 3 1 4 3 3 2 8 10 10 9 8 8 8 9
17 18 18 18 16 17 10 8 7 8 8 9 5 4 4 2 2 7 6 6 8 1 3 3 4 2 2 2 2 4 4 6 3 1 4 7 2 7 9 9 9 8 8 9 8
16 17 17 16 14 12 6 5 7 9 10 4 1 1 2 2 4 7 5 6 3 5 3 3 2 3 2 2 2 2 3 2 1 4 4 6 9 9 10 9 9 9 8 8 9
17 18 18 17 13 15 6 3 2 3 7 4 4 1 3 6 3 5 3 8 3 5 0 2 1 1 6 6 5 3 3 6 6 6 2 7 8 8 14 9 9 9 8 8 9
17 17 17 18 10 9 4 4 2 0 2 3 2 4 2 4 2 9 10 2 2 2 0 0 0 5 5 5 4 2 3 5 4 5 3 7 12 11 12 10 9 10 9 9 8
16 17 17 15 6 4 5 3 3 3 2 3 2 3 2 6 3 7 9 3 4 1 3 3 3 3 3 4 1 2 3 2 2 8 7 7 11 11 5 10 9 8 9 8 7
15 15 14 14 2 3 3 4 5 5 2 4 2 2 0 4 2 3 5 4 1 3 3 3 2 1 2 3 2 3 4 4 2 3 3 5 6 5 13 10 8 8 7 8 8
15 15 10 14 2 2 2 6 7 3 4 4 2 2 0 3 2 3 2 1 3 2 1 1 4 3 4 2 3 2 1 1 2 1 5 5 2 3 11 8 8 9 9 9 8
11 13 7 0 3 1 3 5 1 3 7 3 2 2 2 2 2 2 1 1 3 0 0 3 2 3 3 5 3 7 2 4 3 2 2 9 8 4 4 5 8 7 9 9 8
8 7 5 2 2 1 2 2 3 3 2 1 1 2 1 3 1 3 0 2 2 3 4 3 3 2 6 5 2 2 1 2 3 1 6 5 3 8 3 4 7 8 9 9 8
4 4 6 5 2 1 1 2 4 4 1 1 3 3 1 2 1 2 2 3 3 2 1 4 4 6 5 1 5 5 3 4 6 3 2 4 7 5 3 5 5 5 9 9 8
2 1 2 2 2 1 1 1 5 2 3 3 1 3 5 3 2 3 6 1 2 4 5 3 3 3 4 2 2 5 3 1 2 2 2 5 5 1 3 2 3 2 3 5 5
2 1 2 1 2 2 2 6 6 2 4 2 4 6 5 7 5 4 5 4 4 1 2 1 3 2 2 2 2 2 4 4 1 2 6 5 6 5 3 5 6 6 8 8 6
1 2 2 1 1 2 3 6 2 2 1 5 5 4 5 5 4 4 4 1 5 4 2 3 3 2 4 6 8 2 3 1 2 3 5 3 5 6 9 8 9 10 11 9 8
2 2 1 4 2 3 3 3 1 4 2 3 3 2 2 6 5 4 6 2 7 7 5 1 3 4 6 0 2 2 3 6 4 6 5 3 17 5 8 5 5 4 4 3 5
5 2 3 4 4 6 3 3 1 5 5 6 4 2 3 2 2 6 4 4 5 6 6 5 2 2 2 5 4 2 4 4 1 1 18 11 11 4 11 9 1 4 5 5 5
3 2 1 1 0 3 6 6 6 1 2 2 2 3 2 3 3 3 1 3 5 4 4 6 3 6 11 4 3 4 6 5 7 8 14 21 25 20 13 8 9 4 5 5 3
2 3 2 5 6 12 6 2 7 5 1 3 4 5 5 5 4 9 9 4 5 7 5 3 5 6 12 13 10 15 13 10 15 17 16 22 19 17 5 5 5 6 4 2 4
5 4 1 1 3 11 13 6 12 4 6 4 3 5 1 3 3 2 6 2 4 9 6 2 9 7 17 13 17 24 17 12 14 12 18 18 12 1 3 5 5 6 5 6 5
2 1 3 8 5 6 5 3 6 9 3 4 3 2 5 3 6 6 4 5 4 1 0 3 1 2 23 5 12 15 9 7 3 2 4 4 1 2 4 4 3 5 5 5 3
Wind_Direction
12 8 6 6 359 2 3 5 8 8 4 6 360 352 349 337 314 29 40 327 322 325 319 275 262 304 269 132 322 299 297 174 60 48 100 116 119 48 58 79 51 53 64 81 42
7 4 2 357 356 356 356 358 1 359 359 359 357 350 339 334 132 62 352 338 334 333 330 347 1 317 151 135 5 2 344 37 18 25 91 103 50 123 110 114 101 93 77 70 55
5 1 358 354 351 352 350 352 351 350 351 345 345 340 330 317 244 38 350 343 335 324 304 295 287 282 128 305 31 358 40 106 51 17 337 114 76 38 14 82 42 103 86 68 64
2 359 356 351 348 347 345 345 341 339 339 333 332 328 324 269 297 8 347 340 325 301 281 281 267 250 266 121 33 192 69 9 105 14 306 103 91 70 39 84 88 88 83 72 66
359 355 352 348 344 341 339 336 335 329 324 323 324 325 301 126 44 343 346 344 346 323 356 332 328 345 253 84 276 336 93 65 99 141 36 80 43 111 102 107 106 100 81 70 64
356 351 347 344 340 337 336 333 330 326 319 315 316 317 256 160 313 354 350 357 2 347 18 10 9 323 43 49 7 44 53 88 131 171 153 198 145 134 134 138 123 106 95 84 74
354 349 345 343 340 339 336 338 338 342 319 313 312 294 54 86 8 3 342 11 5 351 33 8 312 297 319 126 232 98 262 176 193 124 78 300 148 164 135 149 136 122 112 97 87
352 350 346 345 344 342 339 340 343 343 326 310 301 273 68 89 326 18 355 45 354 360 348 330 322 74 1 154 200 235 150 207 87 154 135 196 178 131 150 156 154 140 128 112 92
352 350 347 345 344 339 338 328 314 301 286 278 264 253 88 178 359 0 14 339 295 321 316 300 309 42 207 217 181 183 251 200 152 131 141 186 177 158 170 185 160 162 140 125 111
353 351 348 345 342 346 323 289 280 282 253 261 11 114 94 29 344 312 355 308 306 297 234 239 226 183 239 171 193 94 264 6 335 161 194 225 253 170 181 183 178 155 140 125 98
354 352 348 345 336 330 310 236 236 172 39 52 8 336 45 335 257 25 334 318 223 239 233 48 265 183 63 51 43 3 302 284 315 74 322 254 269 252 184 181 177 150 147 127 113
351 350 349 345 329 357 290 60 100 30 128 73 103 86 42 326 240 28 337 289 250 128 150 70 134 52 59 51 30 322 293 278 287 59 17 279 272 265 173 176 170 153 145 128 131
349 349 348 345 325 352 64 70 324 258 221 89 58 48 343 315 40 2 354 304 1 180 34 344 80 45 19 85 75 242 247 338 327 347 263 297 278 237 194 124 76 75 104 100 118
345 349 350 346 47 331 32 329 308 296 232 151 157 72 253 322 79 4 7 29 56 355 37 32 77 169 140 213 159 244 11 89 65 19 261 49 288 169 146 119 132 138 133 141 127
344 348 347 21 143 55 334 322 310 256 308 79 98 335 344 57 353 36 13 320 26 123 134 136 154 170 209 60 342 125 34 60 156 206 24 216 182 271 125 164 166 167 168 142 131
343 352 329 250 65 104 316 307 295 47 248 99 107 109 114 40 59 332 39 60 10 6 41 85 335 15 74 75 44 133 171 207 190 152 289 216 176 248 176 182 148 147 147 141 139
336 341 23 358 63 63 306 256 21 218 30 154 125 173 70 133 196 336 69 171 218 154 194 151 161 89 155 105 76 246 249 343 333 328 230 0 227 254 190 87 141 152 153 147 142
320 337 37 46 85 126 235 48 199 269 292 328 104 89 205 90 142 189 230 231 224 252 323 201 269 170 180 208 165 183 167 163 248 246 306 185 242 253 112 77 31 96 142 143 161
261 211 208 96 333 264 99 176 224 201 69 156 14 174 166 163 215 223 206 245 102 193 190 160 217 66 20 33 64 146 190 203 21 345 22 236 289 323 62 66 67 68 123 175 173
292 287 174 77 205 254 141 225 226 119 120 33 225 208 208 157 181 190 193 147 160 306 168 210 301 145 79 20 70 90 161 65 3 228 244 258 259 225 186 216 204 211 214 212 189
21 281 72 14 308 218 207 225 139 123 156 157 251 233 231 169 205 213 212 184 127 153 262 162 111 125 127 206 179 148 228 234 120 191 208 272 255 194 150 173 196 216 209 194 185
96 218 280 14 169 195 194 222 54 163 151 176 260 287 265 155 193 245 228 144 132 158 171 104 155 235 222 214 59 52 193 154 160 256 224 230 264 185 122 128 156 205 161 118 120
165 174 324 96 199 222 150 180 245 180 188 173 224 239 16 191 212 227 139 92 142 184 172 196 228 321 254 2 11 168 209 200 256 63 250 255 252 254 345 343 14 116 99 117 132
134 169 192 246 72 238 215 203 188 95 205 116 130 105 156 179 234 247 197 178 175 231 139 176 209 194 246 201 129 207 202 205 190 247 266 250 277 285 298 33 5 358 113 87 60
138 212 174 187 224 215 145 217 217 182 217 166 197 212 150 225 254 243 214 123 189 218 174 189 234 247 264 278 270 262 259 239 237 247 250 280 274 293 42 335 313 327 13 316 255
155 154 224 116 351 198 198 213 214 124 156 191 229 137 296 191 221 279 33 55 244 194 190 221 270 278 272 274 272 270 265 257 256 259 263 273 286 17 9 344 348 6 353 332 6
125 128 149 152 147 155 197 221 204 140 124 75 93 204 215 242 25 18 4 322 285 151 281 254 255 280 275 283 310 283 242 244 281 71 155 251 238 360 338 328 307 299 308 309 22